This demonstration page uses our WeatherBlox Daily Observations layout. Learn more.

Left ArrowRight Arrow

30.21309, -93.2044

Hourly Observations for July 25, 2019

Temp ( °F °C ) Dew Point ( °F °C ) Humidity (%) Winds ( mph kmh ) Pressure ( in mb ) Visibility ( mi km ) Precip ( " mm )
12:15 am 00:15 Clear 71 21.8 64 17.9 79 79 NNE 13 20 30.04 1017 10 16 0.00 0.00
12:35 am 00:35 Clear 71 21.6 64 17.6 78 78 NNE 12 19 30.04 1017 10 16 0.00 0.00
12:55 am 00:55 Clear 71 21.5 64 17.5 78 78 NNE 10 17 30.04 1017 10 16 0.00 0.00
1:15 am 01:15 Clear 70 21.3 64 17.6 80 80 NNE 9 15 30.03 1017 10 16 0.00 0.00
1:35 am 01:35 Clear 70 21 64 17.5 81 81 N 7 11 30.02 1017 10 16 0.00 0.00
1:55 am 01:55 Clear 69 20.8 64 17.5 82 82 NNE 7 11 30.02 1017 10 16 0.00 0.00
2:15 am 02:15 Clear 69 20.6 64 17.6 83 83 NNE 7 11 30.02 1017 10 16 0.00 0.00
2:35 am 02:35 Clear 69 20.6 64 17.5 83 83 NNE 7 11 30.02 1017 10 16 0.00 0.00
2:55 am 02:55 Clear 68 20.2 64 17.6 85 85 N 6 9 30.02 1017 10 16 0.00 0.00
3:15 am 03:15 Clear 68 20.2 64 17.7 86 86 N 7 11 30.02 1017 10 16 0.00 0.00
3:35 am 03:35 Clear 68 20.1 64 17.5 85 85 N 6 9 30.02 1017 10 16 0.00 0.00
3:55 am 03:55 Clear 68 20 63 17.4 85 85 N 7 11 30.01 1016 10 16 0.00 0.00
4:15 am 04:15 Clear 68 20 63 17.3 85 85 N 7 11 30.02 1017 10 16 0.00 0.00
4:35 am 04:35 Clear 68 19.8 63 17.2 85 85 N 7 11 30.02 1017 10 16 0.00 0.00
4:55 am 04:55 Clear 67 19.6 63 17.1 86 86 N 8 13 30.02 1017 10 16 0.00 0.00
6:00 am 06:00 Mostly Clear 66 19 63 17 88 88 NNE 12 19 30.05 1018 10 16 0.00 0.00
6:55 am 06:55 Mostly Sunny 68 20 63 17 83 83 NNE 8 13 30.07 1018 10 16 0.00 0.00
7:55 am 07:55 Mostly Sunny 72 22 64 18 78 78 NNE 6 9 30.08 1019 10 16 0.00 0.00
8:50 am 08:50 Mostly Sunny 73 23 66 19 78 78 NNE 7 11 30.09 1019 10 16 0.00 0.00
9:45 am 09:45 Mostly Sunny 79 26 66 19 65 65 NNE 8 13 30.10 1019 10 16 0.00 0.00
10:52 am 10:52 Mostly Sunny 79 26 63 17 58 58 NE 7 11 30.09 1019 10 16 0.00 0.00
11:47 am 11:47 Mostly Sunny 84 29 61 16 45 45 E 7 11 30.09 1019 10 16 0.00 0.00
12:53 pm 12:53 Sunny 86 30 63 17 46 46 ENE 13 20 30.07 1018 10 16 0.00 0.00
1:55 pm 13:55 Partly Cloudy 86 30 63 17 46 46 ENE 8 13 30.06 1018 10 16 0.00 0.00
2:54 pm 14:54 Partly Cloudy 86 30 63 17 46 46 NE 7 11 30.06 1018 10 16 0.00 0.00
3:52 pm 15:52 Partly Cloudy 88 31 64 18 46 46 E 9 15 30.03 1017 10 16 0.00 0.00
4:55 pm 16:55 Partly Cloudy 88 31 63 17 43 43 NE 12 19 30.03 1017 10 16 0.00 0.00
5:55 pm 17:55 Partly Cloudy 88 31 64 18 46 46 E 13 20 30.02 1017 10 16 0.00 0.00
6:55 pm 18:55 Mostly Sunny 84 29 63 17 48 48 E 8 13 30.04 1017 10 16 0.00 0.00
9:48 pm 21:48 Mostly Clear 75 24 66 19 74 74 NNE 5 7 30.06 1018 10 16 0.00 0.00
10:15 pm 22:15 Clear 75 24 67 19.3 75 75 NNE 5 7 30.06 1018 10 16 0.00 0.00
10:35 pm 22:35 Clear 75 24 67 19.4 76 76 NNE 6 9 30.06 1018 10 16 0.00 0.00
10:55 pm 22:55 Clear 75 23.8 67 19.4 76 76 NNE 8 13 30.06 1018 10 16 0.00 0.00
11:15 pm 23:15 Clear 74 23.5 67 19.3 77 77 NNE 9 15 30.06 1018 10 16 0.00 0.00
11:35 pm 23:35 Clear 74 23.5 67 19.2 77 77 NNE 12 19 30.06 1018 10 16 0.00 0.00
11:55 pm 23:55 Clear 74 23.2 67 19.3 79 79 NNE 13 20 30.06 1018 10 16 0.00 0.00

Powered by AerisWeather